User: anonymous
Location: Lone Wolf Observatory
(41.0360°N, 89.2260°W)
Time: 06:45:32
(UTC-05:00)
Language:

Cosmos 1378 Rocket - Orbit

View from above orbital plane
View from above orbital plane
View from above satellite
View from above satellite

Ground track
Ground track

The orbit data is extracted from the following two-line orbital elements,

1 13272U 82059B   14233.43934222  .00000182  00000-0  18953-4 0  8261
2 13272 082.5115 027.4145 0017309 280.1430 079.7833 14.84035874738986
Epoch (UTC): 21 August 2014 10:32:39
Eccentricity: 0.0017309
inclination: 82.5115°
perigee height: 604 km
apogee height: 629 km
right ascension of ascending node: 27.4145°
argument of perigee: 280.1430°
revolutions per day: 14.84035874
mean anomaly at epoch: 79.7833°
orbit number at epoch: 73898

The dashed part of the orbit path shows where the satellite is in the earth's shadow,  

DLR